Preview of NWS' New Version of Forecast
This preview is not operational and should not be used for support decisions.
Latest weather observations around

Seattle, Seattle-Tacoma International Airport (KSEA)

Using English Units (Switch to International System of Units)
Date/ Time (PDT) Wind (mph) Vis. (mi) Weather Sky Cond. Temp (°F) Rel. Humidity Wind Chill (°F) Heat Index (°F) Pressure Precip. (in)
Air Dwpt 6 hour Altimeter (inHg) Sea level (inHg) 1 hr 3 hr 6 hr
Max Min
Jun 25 17:53 WSW 10 10 Mostly Cloudy FEW040 SCT110 BKN250 71 48     44%   70 29.84 29.86      
Jun 25 16:53 SW 7 10 Mostly Cloudy FEW040 SCT130 BKN250 70 39     32%     29.84 29.85      
Jun 25 15:53 SW 7 10 Mostly Cloudy FEW040 SCT120 BKN250 71 44     38%   70 29.85 29.87      
Jun 25 14:53 SW 8 10 Mostly Cloudy FEW040 SCT120 BKN250 73 42     33%   72 29.86 29.87      
Jun 25 13:53 W 7 10 Mostly Cloudy FEW040 FEW100 BKN250 72 45     38%   71 29.87 29.88      
Jun 25 12:53 W 8 10 Mostly Cloudy FEW040 SCT100 BKN220 70 46     42%     29.87 29.89      
Jun 25 11:53 WNW 7 10 Mostly Cloudy FEW035 SCT110 BKN210 68 48     49%     29.89 29.9      
Jun 25 10:53 W 6 10 Mostly Cloudy FEW035 SCT120 BKN210 65 48     54%     29.9 29.91      
Jun 25 09:53 W 6 10 Mostly Cloudy FEW035 SCT140 BKN250 61 48     62%     29.9 29.92      
Jun 25 08:53 SSE 6 10 Mostly Cloudy BKN140 BKN250 58 46     65%     29.9 29.92      
Jun 25 07:53 ESE 7 10 Mostly Cloudy BKN140 BKN250 56 46     69%     29.91 29.92      
Jun 25 06:53 NE 5 10 Mostly Cloudy BKN140 BKN250 56 48     75%     29.9 29.92      
Jun 25 05:53 Calm 10 Partly Cloudy SCT140 SCT250 52 47     83%     29.9 29.91      
Jun 25 04:53 NNE 6 10 Partly Cloudy FEW140 SCT250 53 46     77%     29.89 29.91      
Jun 25 03:53 NNE 9 10 Mostly Clear FEW250 54 47     77%     29.9 29.91      
Jun 25 02:53 NNE 9 10 Clear   55 47     74%     29.91 29.92      
Jun 25 01:53 Calm 10 Partly Cloudy SCT250 55 47     74%     29.92 29.93      
Jun 25 00:53 N 8 10 Mostly Clear FEW250 56 48     75%     29.92 29.93      
Jun 24 23:53 N 8 10 Mostly Clear FEW250 55 47     74%     29.93 29.94      
Jun 24 22:53 N 7 10 Mostly Clear FEW050 FEW250 58 47     67%     29.93 29.95      
Jun 24 21:53 N 7 10 Mostly Clear FEW050 FEW250 60 45     57%     29.93 29.95      
Jun 24 20:53 NW 5 10 Partly Cloudy FEW050 SCT250 63 44     50%     29.94 29.95      
Jun 24 19:53 NW 8 10 Partly Cloudy FEW050 SCT250 67 44     44%     29.94 29.96      
Jun 24 18:53 Calm 10 Partly Cloudy FEW050 SCT250 68 42     39%     29.96 29.97      
Jun 24 16:53 WNW 7 10 Partly Cloudy SCT045 SCT250 69 43     39%     30 30.01      
Jun 24 14:53 3 10 Clear   68 45     43%     30.03 30.04      
Jun 24 13:53 WNW 7 10 Partly Cloudy SCT030 SCT045 SCT250 64 44     48%     30.04 30.06      
Jun 24 12:53 WNW 7 10 Mostly Cloudy SCT025 BKN047 66 47     50%     30.06 30.07      
Jun 24 11:53 NE 5 10 Mostly Cloudy SCT021 BKN040 60 47     62%     30.07 30.09      
Jun 24 11:34 NE 5 10 Mostly Cloudy SCT021 BKN042 60 46     60%     30.08        
Jun 24 10:53 3 10 Mostly Cloudy FEW014 BKN021 58 47     67%     30.08 30.1     0
Jun 24 09:53 NW 5 10 Cloudy FEW013 OVC019 56 47     72%     30.09 30.11      
Jun 24 08:53 5 10 Cloudy FEW015 BKN023 OVC040 56 48     75%     30.09 30.11      
Jun 24 07:53 S 5 10 Cloudy FEW013 BKN020 OVC040 54 48     80%     30.09 30.11   0  
Jun 24 06:53 SSE 7 10 Cloudy FEW013 BKN019 OVC040 55 48     77%     30.09 30.11      
Jun 24 06:08 ESE 3 10 Mostly Cloudy FEW021 BKN029 BKN041 54 48     80%     30.09        
Jun 24 05:53 E 6 10 Mostly Cloudy SCT026 BKN039 54 48     80%     30.09 30.11 0    
Jun 24 04:53 ESE 6 10 Light Rain SCT025 BKN035 OVC045 53 49     86%     30.1 30.11 0   0
Jun 24 04:46 ESE 7 10 Light Rain SCT025 OVC035 53 49     86%     30.1   0    
Jun 24 03:53 ESE 7 10 Light Rain FEW005 SCT020 OVC025 53 49     86%     30.12 30.13 0    
Jun 24 02:53 ESE 7 7 Light Rain FEW005 SCT021 OVC029 53 49     86%     30.12 30.13 0    
Jun 24 02:30 E 8 4 Light Rain and Fog/Mist SCT005 OVC027 53 49     86%     30.12   0    
Jun 24 01:53 E 11 8 Light Rain OVC027 54 47     77%     30.12 30.14 0 0  
Jun 24 00:53 ENE 8 10 Cloudy BKN029 OVC040 55 46     72%     30.12 30.13      
Jun 23 23:53 ENE 7 10 Cloudy FEW022 BKN029 OVC037 56 47     72%     30.13 30.15      
Jun 23 22:53 ENE 9 10 Cloudy BKN029 BKN038 OVC065 56 47     72%     30.13 30.15      
Jun 23 22:12 NE 13 10 Cloudy BKN029 BKN044 OVC065 56 47     72%     30.14        
Jun 23 21:53 NE 13 10 Cloudy FEW027 OVC044 57 47     69%     30.14 30.16      
Jun 23 20:53 NNE 13 10 Mostly Cloudy SCT025 BKN030 BKN043 56 48     75%     30.14 30.15      
Jun 23 19:53 NNE 15 10 Mostly Cloudy FEW028 BKN040 BKN060 58 49     72%     30.13 30.15      
Jun 23 18:53 NNE 8 10 Mostly Cloudy FEW026 BKN037 BKN044 63 51     65%     30.13 30.14      
Jun 23 17:53 3 10 Cloudy FEW020 BKN038 OVC060 64 48     56%     30.14 30.15      
Jun 23 16:53 E 5 10 Mostly Cloudy FEW030 BKN048 64 49     58%     30.15 30.16      
Jun 23 15:53 SW 3 10 Cloudy SCT034 OVC050 64 48     56%     30.16 30.17      
Jun 23 14:53 SSW 3 10 Cloudy SCT025 OVC037 64 49     58%     30.17 30.19      
Jun 23 14:17 3 10 Cloudy SCT025 OVC032 62 48     60%     30.18        
Jun 23 13:53 S 6 10 Cloudy SCT025 BKN029 OVC039 62 48     60%     30.17 30.19      
Jun 23 12:53 6 10 Cloudy SCT023 OVC028 61 49     64%     30.19 30.21      
Jun 23 11:53 SW 8 10 Cloudy OVC020 58 48     70%     30.19 30.21      
Jun 23 10:53 6 10 Cloudy OVC017 58 48     70%     30.19 30.21      
Jun 23 09:53 S 8 10 Cloudy SCT010 OVC017 55 48     77%     30.19 30.21      
Jun 23 08:53 SSW 9 10 Cloudy OVC014 55 47     74%     30.18 30.2      
Jun 23 07:53 SW 6 6 Fog/Mist OVC011 54 49     83%     30.18 30.19      
Jun 23 06:53 SW 7 8 Cloudy OVC011 54 48     80%     30.17 30.19      
Jun 23 06:34 WSW 7 7 Cloudy OVC011 54 48     80%     30.17        
Jun 23 05:53 SW 9 10 Cloudy SCT009 OVC015 55 49     80%     30.17 30.18      
Jun 23 05:48 SW 7 10 Cloudy SCT009 OVC013 55 48     77%     30.16        
Jun 23 04:53 SSW 7 10 Cloudy OVC008 55 50     83%     30.16 30.18      
Jun 23 03:53 SSW 8 10 Cloudy OVC008 57 52     83%     30.17 30.18      
Jun 23 03:16 W 6 10 Clear   57 51     81%     30.17        
Jun 23 02:53 SSW 6 10 Clear   57 52     83%     30.17 30.19      
Jun 23 01:53 SSW 6 10 Cloudy OVC011 58 52     81%     30.17 30.19      
Jun 23 00:53 SW 9 10 Cloudy OVC014 59 52     78%     30.18 30.19      
Jun 23 00:38 SW 8 10 Cloudy BKN016 OVC055 59 52     78%     30.18        
Jun 22 23:53 SSW 7 10 Cloudy FEW033 OVC055 59 52     78%     30.18 30.19      
Jun 22 22:53 SSW 7 10 Cloudy SCT024 BKN050 OVC090 60 52     75%     30.18 30.19     0
Jun 22 22:13 SSW 5 10 Cloudy BKN027 OVC055 61 52     72%     30.19        
Jun 22 21:53 SW 6 10 Cloudy BKN032 OVC055 61 52     72%     30.18 30.2      
Jun 22 20:53 SSE 3 10 Cloudy BKN041 OVC050 64 49     58%     30.18 30.2      
May 15 00:53 WSW 6 10 Mostly Clear FEW250 63 51     65%     29.89 29.9      
May 14 14:53 NW 8 10 Mostly Clear FEW050 FEW250 84 55     37%   83 29.9 29.91      
May 14 05:53 SSW 3 10 Mostly Clear FEW250 59 52     78%     29.96 29.97      
May 13 17:53 N 5 10 Mostly Clear FEW250 84 46     27%   82 29.9 29.91      
May 13 01:53 NE 7 10 Clear CLR 60 47     62%     29.97 29.98      
May 12 18:53 NNE 13 10 Mostly Clear FEW030 74 49     41%   73 29.98 29.99      
May 12 17:53 N 13 10 Mostly Clear FEW030 76 49     39%   75 29.99 30.01      
May 12 13:53 NNE 11 10 Clear   72 51     48%   71 30.07 30.08      
Jun 12 03:53 SW 7 10 Partly Cloudy SCT011 52 49     89%     30 30.02      
Jun 11 13:53 WSW 7 10 Partly Cloudy FEW040 SCT170 65 48     54%     30.02 30.04      
Jun 11 02:53 S 5 10 Mostly Cloudy SCT080 BKN180 53 49     86%     29.99 30.01      
Jun 10 15:53 WNW 10 10 Partly Cloudy SCT045 SCT200 66 41     40%     29.86 29.87      
Jun 07 10:53 W 7 10 Mostly Cloudy FEW120 BKN250 67 48     51%     29.78 29.79      
Jun 06 05:53 NNE 6 10 Partly Cloudy SCT140 SCT250 56 43     62%     30.01 30.03      
Jun 05 21:53 N 8 10 Mostly Cloudy BKN250 62 43     50%     30.06 30.07